Theta_e
317 318 320 319 315 311 314 314 314 313 315 318 317 316 315 313 313 311 311 310 310 310 310 312 313 314 319 325 328 329 330 331 331 331 331 331 331 331 331 332 332 332 332 331
316 317 313 314 315 312 315 312 312 316 315 315 312 313 311 311 311 311 310 309 308 309 311 311 311 310 310 311 313 318 325 327 328 330 331 332 332 332 331 332 332 331 331 331
314 309 311 314 317 315 314 312 312 313 313 310 308 308 307 307 307 307 306 305 305 305 306 308 310 310 309 309 311 312 312 314 319 327 329 330 331 331 331 331 331 331 330 330
310 310 313 313 316 315 316 313 312 314 311 313 306 305 305 304 303 303 303 302 303 303 303 304 306 307 308 309 310 311 311 313 313 314 318 328 329 329 330 331 331 331 330 329
305 310 312 313 313 314 314 311 312 311 310 311 310 308 305 302 304 303 302 305 303 299 302 302 305 307 309 309 310 310 311 311 312 313 314 316 321 325 327 328 328 327 327 327
309 310 309 311 310 312 311 312 312 310 309 311 310 309 306 304 304 305 308 306 305 304 303 304 307 308 309 308 309 309 310 311 311 311 312 312 314 315 316 318 320 321 325 326
311 311 310 310 312 311 312 314 318 319 318 316 303 307 307 305 301 303 303 307 305 305 304 305 307 307 307 307 307 307 308 309 310 312 313 312 313 313 314 317 319 321 323 324
313 310 312 311 311 312 311 313 316 318 309 306 305 307 305 303 304 305 304 306 305 305 304 306 307 307 307 306 306 306 306 306 308 310 312 312 314 314 314 315 319 322 322 322
312 311 310 311 310 311 312 312 307 308 302 308 305 305 304 305 305 306 306 306 306 305 305 306 307 306 306 306 305 305 305 305 305 306 307 310 311 313 314 315 316 319 319 318
311 311 309 311 310 311 310 309 312 309 307 308 303 304 305 305 307 307 307 306 307 306 306 306 305 305 305 305 305 304 304 304 303 303 304 305 307 309 310 310 311 311 311 311
311 312 312 312 312 311 311 312 310 310 308 307 303 303 300 302 303 306 306 305 306 306 306 306 305 306 305 305 304 304 304 304 303 303 303 303 303 304 306 307 307 307 306 304
311 313 313 313 308 307 310 311 309 309 307 307 307 307 303 300 302 303 305 304 304 305 305 304 305 306 305 304 304 304 304 304 303 303 302 302 302 302 302 302 302 302 302 301
311 313 308 308 310 308 311 310 310 307 308 309 307 304 303 305 305 303 304 304 303 303 303 302 302 303 304 305 305 305 305 305 304 303 302 302 301 301 301 301 301 300 300 300
309 311 310 309 309 308 312 311 311 310 311 310 308 306 307 306 306 304 304 303 303 302 303 302 302 302 303 304 305 305 305 305 305 304 303 302 301 300 300 300 300 299 299 299
306 308 307 308 306 307 309 308 311 312 311 310 309 307 305 304 305 304 303 303 303 304 303 302 301 300 302 303 303 304 304 304 305 305 303 302 301 300 300 299 299 299 299 299
303 296 301 299 303 306 308 307 308 311 311 310 308 309 304 304 303 303 303 302 303 303 302 302 301 301 301 302 303 303 303 304 304 304 304 302 302 301 299 299 298 298 298 298
304 296 303 298 303 304 305 308 308 308 310 311 312 310 306 307 306 304 302 302 302 301 301 301 300 300 302 302 302 302 303 303 303 303 302 302 300 299 298 298 298 297 297 296
303 301 303 299 292 299 301 304 305 306 307 307 308 307 306 307 306 304 302 302 301 301 301 300 301 301 301 301 302 302 301 301 301 301 300 300 299 298 297 297 297 296 296 295
302 302 297 298 297 299 301 301 303 305 306 306 307 307 306 304 305 304 302 301 302 302 302 303 302 301 300 301 299 299 298 298 298 298 299 299 299 298 297 296 296 295 294 293
301 303 304 296 302 302 300 300 302 304 305 303 304 305 305 302 306 307 304 301 301 301 301 300 300 300 299 297 297 297 296 296 296 297 297 298 298 297 296 295 294 293 292 291
301 303 303 303 304 299 298 299 301 304 302 300 300 302 301 303 305 301 301 300 300 300 299 299 299 298 297 296 295 295 295 295 295 295 296 296 296 295 294 294 293 292 290 288
297 299 299 302 303 302 297 299 303 302 300 299 299 299 299 299 300 299 298 298 297 296 297 297 296 295 295 295 295 294 294 294 294 294 294 294 294 293 292 292 291 289 287 286
297 299 297 298 299 299 297 299 299 298 298 298 298 297 297 298 297 296 295 295 295 295 295 296 295 295 295 294 294 295 293 293 292 292 292 291 290 289 289 288 288 286 285 285
296 296 298 298 298 297 297 297 296 298 298 298 296 296 295 297 297 297 296 293 292 294 294 294 294 294 294 294 294 294 293 292 291 290 289 288 287 286 285 285 284 284 284 284
296 297 296 297 298 299 298 297 298 298 297 296 296 298 296 296 297 296 294 293 292 293 294 293 294 295 295 294 294 293 291 290 289 288 287 286 284 284 283 283 283 283 283 284
295 297 300 299 298 299 298 298 297 297 297 296 297 297 295 296 295 295 292 293 293 294 294 293 294 294 294 293 292 290 289 288 287 286 284 283 282 281 281 281 280 280 280 281
Wind_Speed
1 2 6 5 2 2 5 3 3 1 2 3 5 7 8 5 3 7 8 8 8 9 7 10 6 5 9 14 19 21 21 22 22 23 24 24 28 29 29 30 28 26 25 25
3 6 5 4 2 2 3 4 2 0 2 2 2 9 7 7 7 8 9 9 10 4 4 5 6 2 2 4 5 9 15 19 22 24 26 24 21 25 28 26 25 24 24 23
4 1 6 4 3 4 1 4 3 1 1 3 3 6 4 4 4 5 8 7 6 9 8 7 10 8 7 5 3 3 5 9 14 18 23 24 23 22 21 21 21 22 21 20
3 2 5 1 3 4 4 4 5 5 2 3 2 5 5 1 7 7 9 6 8 7 6 5 7 5 4 4 4 4 5 5 7 11 17 23 25 22 26 25 23 20 17 16
4 3 5 4 4 6 3 5 5 3 4 2 2 2 7 3 5 9 3 3 7 6 5 5 6 6 4 2 0 2 3 5 5 6 9 14 18 22 23 21 19 18 17 16
2 2 1 4 2 5 7 6 7 4 3 2 4 4 5 4 5 2 2 4 3 5 6 6 6 6 4 2 2 2 2 3 4 6 7 9 12 14 15 17 17 17 15 14
2 1 3 1 5 3 2 5 3 2 1 5 1 1 6 10 5 3 5 2 4 5 4 4 4 4 5 5 4 4 4 3 3 3 3 5 9 11 11 12 13 14 14 14
5 2 5 2 2 6 4 4 6 5 3 2 2 6 6 5 4 6 7 5 4 4 3 4 4 4 4 4 4 4 4 4 4 4 3 4 4 4 8 11 9 11 12 10
3 1 2 2 0 1 3 2 1 7 1 3 4 6 10 4 4 1 4 5 6 5 4 4 4 3 3 2 2 2 3 3 5 6 6 4 4 3 2 1 4 7 8 8
3 2 2 1 2 2 4 5 2 2 3 4 4 4 5 5 6 2 4 6 5 4 4 2 1 2 1 1 1 1 1 2 3 4 5 5 4 3 2 1 2 4 5 5
2 3 3 2 4 6 3 2 2 4 3 4 1 5 6 6 6 7 7 6 5 5 4 3 3 3 3 3 3 2 2 3 3 4 4 4 4 3 2 1 1 2 2 3
2 2 4 3 3 3 2 2 4 3 5 3 1 6 3 7 7 6 7 5 3 4 5 4 5 5 4 3 3 3 4 4 4 4 4 4 3 3 2 2 2 3 3 3
3 3 2 4 2 0 4 5 4 3 2 5 4 6 2 4 3 4 6 5 5 4 4 4 4 4 3 4 5 5 6 6 5 5 5 5 4 3 3 3 3 3 3 3
5 1 1 2 3 3 3 5 9 6 2 8 6 5 4 5 5 4 6 6 7 7 6 4 3 3 5 7 7 8 9 9 8 8 9 8 6 5 6 5 4 4 4 4
3 4 2 2 3 1 2 7 8 12 21 10 19 11 7 5 6 6 4 5 6 6 6 6 4 5 8 7 6 9 10 10 10 11 12 9 7 8 8 9 8 6 6 5
1 3 2 4 8 7 5 9 9 16 21 14 14 9 5 4 4 5 7 6 8 9 7 6 7 8 10 9 8 8 8 7 7 10 11 10 11 11 11 11 10 9 8 7
3 3 1 5 3 1 5 13 10 8 14 15 15 24 6 8 8 7 9 10 12 10 7 7 8 11 10 9 8 6 5 5 7 8 9 10 11 13 13 12 11 10 8 7
5 3 3 3 3 0 6 2 5 10 14 8 12 11 7 12 12 7 8 10 12 10 9 9 10 9 10 9 7 6 5 4 4 6 7 8 10 13 13 12 12 10 9 8
8 4 3 2 3 4 9 6 7 8 11 12 17 17 13 6 1 8 10 11 12 12 12 16 11 9 9 11 8 5 2 1 3 5 7 7 8 11 12 13 11 10 9 8
7 9 6 1 4 7 9 3 2 4 5 8 11 17 14 8 5 14 11 8 11 16 11 10 7 10 13 9 6 3 1 3 5 7 7 7 7 8 11 11 11 10 9 7
3 5 15 12 7 7 12 6 3 3 10 4 6 12 5 8 12 3 2 4 7 11 10 10 16 15 11 8 4 2 1 4 5 6 6 5 4 5 8 10 11 10 9 9
7 6 5 7 7 11 5 4 11 10 6 4 4 4 7 9 6 6 5 3 4 4 9 12 12 10 7 4 2 0 3 4 5 4 4 3 3 5 7 9 10 10 10 11
4 7 5 8 6 6 6 4 7 2 5 5 4 8 8 6 6 6 4 5 4 9 10 9 8 6 3 2 2 4 5 5 5 4 3 2 3 4 6 8 10 11 13 15
4 3 4 3 10 9 6 7 7 4 6 9 6 5 5 4 4 4 2 3 4 8 8 6 6 6 5 5 5 5 5 5 4 3 2 3 3 4 4 5 6 9 13 15
5 7 4 5 15 3 9 8 10 10 10 10 7 3 8 6 3 2 1 2 4 6 7 8 8 7 6 6 7 7 7 6 5 5 5 5 5 6 6 6 4 6 8 10
5 7 6 8 6 5 7 8 6 6 9 8 2 3 7 2 4 3 3 5 8 11 11 12 12 10 9 9 9 9 8 7 7 7 8 9 9 9 10 11 12 8 6 5
Wind_Direction
119 152 201 221 222 67 137 137 150 224 356 165 214 263 237 233 273 259 260 262 254 250 267 261 259 260 248 248 244 245 245 245 240 237 238 242 244 248 247 249 253 256 259 262
96 239 205 166 188 81 120 126 174 321 20 142 55 271 260 256 239 217 225 238 241 237 237 231 206 182 188 211 223 237 243 245 243 241 242 242 248 253 257 259 260 262 263 263
173 283 161 145 152 138 114 152 170 211 89 68 336 287 268 255 273 267 254 242 242 234 231 236 239 243 252 242 238 235 241 246 245 243 242 242 244 250 253 255 256 258 260 261
261 349 132 141 186 144 166 186 128 126 96 233 4 271 293 301 284 270 265 253 259 255 244 218 218 205 207 217 239 252 254 260 257 245 242 244 245 242 255 261 266 270 268 265
242 183 157 179 203 161 196 131 115 88 78 10 340 43 275 353 287 266 323 313 276 242 222 209 139 155 155 157 253 307 276 255 260 259 250 247 248 251 258 263 267 266 262 254
202 291 262 215 75 148 147 91 59 52 57 335 216 172 264 238 219 356 14 32 81 104 111 112 120 129 111 63 38 12 348 327 303 282 263 260 261 263 262 260 256 252 244 237
30 315 303 13 85 51 167 126 43 307 209 235 6 254 266 271 236 263 313 242 128 124 121 135 134 110 93 76 57 51 41 29 360 338 319 280 265 258 257 260 255 244 234 229
152 227 186 178 198 187 173 202 151 195 209 268 341 236 240 238 292 275 260 165 158 152 160 163 137 105 93 74 56 42 41 34 24 16 3 359 347 293 257 253 247 232 221 218
148 209 348 15 60 155 197 209 138 104 95 34 231 292 300 240 245 329 199 164 183 176 191 179 146 138 134 106 62 29 12 11 5 4 4 358 4 16 21 277 228 211 204 202
328 175 10 341 144 37 160 173 114 17 131 239 266 273 243 285 268 168 196 215 197 180 179 175 167 189 154 125 217 234 330 9 356 351 349 352 356 353 351 73 131 153 170 189
174 133 332 130 216 184 151 195 107 124 148 206 272 260 220 246 238 212 219 216 210 193 188 181 190 201 207 226 248 288 318 325 328 329 334 331 327 331 332 292 214 193 192 194
166 169 181 179 338 316 311 224 156 153 217 242 226 266 238 246 265 221 216 209 202 196 192 197 200 204 214 236 269 290 303 311 315 308 305 308 309 305 269 212 185 177 174 171
173 194 91 11 5 235 222 199 199 124 105 203 158 259 309 292 294 205 188 196 193 202 210 219 213 219 253 275 290 300 306 309 306 295 287 281 276 272 262 225 198 189 185 179
131 352 274 204 113 340 228 222 199 184 157 239 235 274 260 240 231 224 205 194 201 210 214 227 265 255 270 275 282 299 305 305 295 285 277 273 267 259 254 246 226 211 203 201
138 208 161 204 263 250 274 300 252 207 226 212 251 242 239 259 238 242 231 231 225 230 226 233 250 256 259 262 268 294 291 293 293 279 270 273 270 259 249 241 232 225 220 219
297 285 13 284 237 204 225 256 247 237 240 235 238 273 188 254 222 201 214 227 239 229 217 232 256 267 244 234 273 280 278 286 282 271 272 270 260 253 243 236 231 226 222 219
152 114 49 279 304 272 273 231 223 235 242 229 240 245 164 232 241 236 214 213 225 233 220 240 242 243 241 246 259 254 254 268 276 281 287 277 260 247 238 233 230 230 229 228
190 164 203 249 12 251 250 226 212 222 255 244 265 266 206 237 236 237 212 210 229 233 228 235 250 228 252 236 205 205 233 264 295 308 306 292 264 249 241 234 230 229 229 227
199 156 263 198 199 305 311 266 188 178 256 210 229 253 253 245 108 268 230 219 223 222 230 237 232 227 195 178 185 194 183 9 348 337 325 308 279 252 237 231 230 231 231 226
206 197 201 130 206 216 239 277 162 132 293 202 213 248 244 147 210 250 239 208 231 234 234 219 212 178 168 164 165 156 112 29 3 346 334 317 289 253 236 229 223 223 221 221
157 212 221 235 246 282 258 208 157 196 248 143 207 241 207 198 219 228 139 206 241 245 223 201 177 168 161 157 150 132 7 359 346 335 325 311 284 246 228 219 216 211 201 191
169 174 200 213 228 254 182 108 191 226 272 350 311 265 203 231 262 278 278 257 188 158 136 149 146 147 153 157 175 294 343 340 332 323 310 289 255 225 215 211 206 200 192 181
235 193 186 181 210 234 212 232 248 301 272 281 247 269 229 222 237 248 266 234 169 151 146 154 151 153 178 235 302 319 330 320 319 309 296 263 235 221 212 206 198 188 186 178
245 164 217 101 250 252 243 245 249 254 266 289 269 270 237 209 229 248 159 167 168 171 172 176 175 196 218 234 256 271 283 290 286 271 235 214 214 210 209 212 209 201 189 182
191 155 194 253 267 333 274 239 240 238 235 245 247 213 253 197 175 148 183 213 218 215 206 207 212 237 261 265 259 262 265 260 246 233 220 207 196 190 174 157 161 184 190 206
189 184 197 240 213 202 244 251 261 241 253 250 211 321 273 166 192 162 217 237 238 237 227 224 232 244 258 259 254 248 244 234 223 212 205 199 188 175 162 146 114 98 124 153